Time,TemperatureF,DewpointF,PressureIn,WindDirection,WindDirectionDegrees,WindSpeedMPH,WindSpeedGustMPH,Humidity,HourlyPrecipIn,Conditions,Clouds,dailyrainin,SoftwareType,DateUTC
2013-02-27 00:02:00,30.0,28.0,29.98,North,358,7.0,8.0,94,0.00,,,0.01,,2013-02-27 06:02:00,
2013-02-27 00:11:00,30.0,28.0,29.98,North,358,7.0,8.0,94,0.00,,,0.01,,2013-02-27 06:11:00,
2013-02-27 00:21:00,30.0,28.0,29.98,NNW,331,4.0,10.0,94,0.00,,,0.01,,2013-02-27 06:21:00,
2013-02-27 00:32:00,30.0,28.0,29.98,NNW,329,5.0,13.0,94,0.00,,,0.01,,2013-02-27 06:32:00,
2013-02-27 00:41:00,30.0,28.0,29.98,NNW,329,5.0,13.0,94,0.00,,,0.01,,2013-02-27 06:41:00,
2013-02-27 00:52:00,30.0,28.0,29.98,NW,316,5.0,12.0,94,0.00,,,0.01,,2013-02-27 06:52:00,
2013-02-27 01:01:00,30.0,28.0,29.98,NW,316,5.0,12.0,94,0.00,,,0.01,,2013-02-27 07:01:00,
2013-02-27 01:12:00,30.0,28.0,29.98,NW,316,5.0,12.0,94,0.00,,,0.01,,2013-02-27 07:12:00,
2013-02-27 01:21:00,30.0,28.0,29.98,NNW,347,2.0,9.0,93,0.00,,,0.01,,2013-02-27 07:21:00,
2013-02-27 01:31:00,30.0,28.0,29.99,NNW,329,6.0,9.0,93,0.00,,,0.01,,2013-02-27 07:31:00,
2013-02-27 01:42:00,30.0,28.0,29.99,NNW,329,6.0,9.0,93,0.00,,,0.01,,2013-02-27 07:42:00,
2013-02-27 01:52:00,30.0,28.0,29.99,NW,320,3.0,8.0,94,0.00,,,0.01,,2013-02-27 07:52:00,
2013-02-27 02:01:00,30.0,28.0,29.99,NW,322,3.0,8.0,94,0.00,,,0.01,,2013-02-27 08:01:00,
2013-02-27 02:11:00,30.0,28.0,29.99,NW,322,3.0,8.0,94,0.00,,,0.01,,2013-02-27 08:11:00,
2013-02-27 02:21:00,30.0,28.0,29.99,West,267,6.0,8.0,94,0.00,,,0.01,,2013-02-27 08:21:00,
2013-02-27 02:31:00,30.0,28.0,29.99,NNW,328,4.0,10.0,94,0.00,,,0.01,,2013-02-27 08:31:00,
2013-02-27 02:41:00,30.0,28.0,29.99,NNW,328,4.0,10.0,94,0.00,,,0.01,,2013-02-27 08:41:00,
2013-02-27 02:53:00,30.0,28.0,30.00,NW,307,4.0,9.0,94,0.00,,,0.01,,2013-02-27 08:53:00,
2013-02-27 03:01:00,30.0,28.0,30.00,NW,312,2.0,9.0,93,0.00,,,0.01,,2013-02-27 09:01:00,
2013-02-27 03:11:00,30.0,28.0,30.00,NW,312,2.0,9.0,93,0.00,,,0.01,,2013-02-27 09:11:00,
2013-02-27 03:21:00,30.0,28.0,30.00,WNW,295,5.0,6.0,92,0.00,,,0.01,,2013-02-27 09:21:00,
2013-02-27 03:32:00,30.0,28.0,30.00,NW,323,4.0,10.0,91,0.00,,,0.01,,2013-02-27 09:32:00,
2013-02-27 03:41:00,30.0,28.0,30.00,NW,323,4.0,10.0,91,0.00,,,0.01,,2013-02-27 09:41:00,
2013-02-27 03:52:00,30.0,28.0,30.01,NNE,18,4.0,9.0,92,0.00,,,0.01,,2013-02-27 09:52:00,
2013-02-27 04:01:00,30.0,28.0,30.01,NNW,329,3.0,8.0,92,0.00,,,0.01,,2013-02-27 10:01:00,
2013-02-27 04:12:00,30.0,28.0,30.01,NNW,329,3.0,8.0,92,0.00,,,0.01,,2013-02-27 10:12:00,
2013-02-27 04:21:00,30.0,28.0,30.01,NW,320,3.0,7.0,92,0.00,,,0.01,,2013-02-27 10:21:00,
2013-02-27 04:32:00,30.0,28.0,30.01,NW,320,3.0,7.0,92,0.00,,,0.01,,2013-02-27 10:32:00,
2013-02-27 04:42:00,30.0,28.0,30.01,NW,320,3.0,7.0,92,0.00,,,0.01,,2013-02-27 10:42:00,
2013-02-27 04:53:00,30.0,28.0,30.01,West,277,1.0,7.0,91,0.00,,,0.01,,2013-02-27 10:53:00,
2013-02-27 05:02:00,30.0,28.0,30.02,NW,311,6.0,8.0,91,0.00,,,0.01,,2013-02-27 11:02:00,
2013-02-27 05:12:00,30.0,28.0,30.02,NW,311,6.0,8.0,91,0.00,,,0.01,,2013-02-27 11:12:00,
2013-02-27 05:22:00,30.0,28.0,30.02,NNW,335,3.0,7.0,91,0.00,,,0.01,,2013-02-27 11:22:00,
2013-02-27 05:32:00,30.0,28.0,30.02,NNW,335,3.0,7.0,91,0.00,,,0.01,,2013-02-27 11:32:00,
2013-02-27 05:41:00,30.0,28.0,30.02,NNW,335,3.0,7.0,91,0.00,,,0.01,,2013-02-27 11:41:00,
2013-02-27 05:52:00,29.0,26.0,30.02,NW,307,7.0,7.0,90,0.00,,,0.01,,2013-02-27 11:52:00,
2013-02-27 06:02:00,29.0,26.0,30.03,NW,307,7.0,7.0,90,0.00,,,0.01,,2013-02-27 12:02:00,
2013-02-27 06:13:00,29.0,26.0,30.03,NW,307,7.0,7.0,90,0.00,,,0.01,,2013-02-27 12:13:00,
2013-02-27 06:22:00,29.0,26.0,30.02,NW,307,7.0,7.0,90,0.00,,,0.01,,2013-02-27 12:22:00,
2013-02-27 06:32:00,29.0,26.0,30.03,NW,307,7.0,7.0,90,0.00,,,0.01,,2013-02-27 12:32:00,
2013-02-27 06:42:00,29.0,26.0,30.03,NW,307,7.0,7.0,90,0.00,,,0.01,,2013-02-27 12:42:00,
2013-02-27 06:52:00,29.0,26.0,30.03,NW,307,7.0,7.0,90,0.00,,,0.01,,2013-02-27 12:52:00,
2013-02-27 07:02:00,29.0,26.0,30.04,NW,307,7.0,7.0,90,0.00,,,0.01,,2013-02-27 13:02:00,
2013-02-27 07:11:00,29.0,26.0,30.04,NW,307,7.0,7.0,90,0.00,,,0.01,,2013-02-27 13:11:00,
2013-02-27 07:22:00,29.0,26.0,30.04,NW,307,7.0,7.0,90,0.00,,,0.01,,2013-02-27 13:22:00,
2013-02-27 07:32:00,29.0,26.0,30.04,NW,307,7.0,7.0,90,0.00,,,0.01,,2013-02-27 13:32:00,
2013-02-27 07:42:00,29.0,26.0,30.04,NW,307,7.0,7.0,90,0.00,,,0.01,,2013-02-27 13:42:00,
2013-02-27 07:52:00,29.0,26.0,30.05,NW,307,7.0,7.0,90,0.00,,,0.01,,2013-02-27 13:52:00,
2013-02-27 08:02:00,28.0,24.0,30.05,WNW,300,6.0,11.0,86,0.00,,,0.01,,2013-02-27 14:02:00,
2013-02-27 08:12:00,28.0,24.0,30.05,WNW,300,6.0,11.0,86,0.00,,,0.01,,2013-02-27 14:12:00,
2013-02-27 08:21:00,28.0,24.0,30.06,NW,309,5.0,11.0,86,0.00,,,0.01,,2013-02-27 14:21:00,
2013-02-27 08:32:00,28.0,24.0,30.07,NW,308,7.0,11.0,85,0.00,,,0.01,,2013-02-27 14:32:00,
2013-02-27 08:42:00,28.0,24.0,30.07,NW,308,7.0,11.0,85,0.00,,,0.01,,2013-02-27 14:42:00,
2013-02-27 08:52:00,28.0,24.0,30.08,NW,311,8.0,16.0,84,0.00,,,0.01,,2013-02-27 14:52:00,
2013-02-27 09:02:00,28.0,24.0,30.09,West,266,10.0,15.0,84,0.00,,,0.01,,2013-02-27 15:02:00,
2013-02-27 09:12:00,28.0,24.0,30.09,West,266,10.0,15.0,84,0.00,,,0.01,,2013-02-27 15:12:00,
2013-02-27 09:22:00,28.0,24.0,30.09,NNW,340,11.0,16.0,84,0.00,,,0.01,,2013-02-27 15:22:00,
2013-02-27 09:32:00,29.0,25.0,30.10,NW,311,14.0,17.0,83,0.00,,,0.01,,2013-02-27 15:32:00,
2013-02-27 09:42:00,29.0,25.0,30.10,NW,311,14.0,17.0,83,0.00,,,0.01,,2013-02-27 15:42:00,
2013-02-27 09:52:00,29.0,24.0,30.09,NW,318,7.0,18.0,82,0.00,,,0.01,,2013-02-27 15:52:00,
2013-02-27 10:02:00,30.0,25.0,30.10,North,356,8.0,17.0,81,0.00,,,0.01,,2013-02-27 16:02:00,
2013-02-27 10:11:00,30.0,25.0,30.10,North,356,8.0,17.0,81,0.00,,,0.01,,2013-02-27 16:11:00,
2013-02-27 10:22:00,30.0,25.0,30.12,NW,322,9.0,16.0,81,0.00,,,0.01,,2013-02-27 16:22:00,
2013-02-27 10:32:00,30.0,25.0,30.11,NNW,342,6.0,15.0,80,0.00,,,0.01,,2013-02-27 16:32:00,
2013-02-27 10:42:00,30.0,25.0,30.11,NNW,342,6.0,15.0,80,0.00,,,0.01,,2013-02-27 16:42:00,
2013-02-27 10:52:00,31.0,26.0,30.12,WNW,288,8.0,17.0,80,0.00,,,0.01,,2013-02-27 16:52:00,
2013-02-27 11:01:00,31.0,26.0,30.12,WNW,288,8.0,17.0,80,0.00,,,0.01,,2013-02-27 17:01:00,
2013-02-27 11:11:00,31.0,26.0,30.12,WNW,288,8.0,17.0,80,0.00,,,0.01,,2013-02-27 17:11:00,
2013-02-27 11:21:00,32.0,25.0,30.13,NW,311,10.0,18.0,76,0.00,,,0.01,,2013-02-27 17:21:00,
2013-02-27 11:32:00,33.0,26.0,30.14,NW,320,3.0,20.0,76,0.00,,,0.01,,2013-02-27 17:32:00,
2013-02-27 11:42:00,33.0,26.0,30.14,NW,320,3.0,20.0,76,0.00,,,0.01,,2013-02-27 17:42:00,
2013-02-27 11:52:00,33.0,26.0,30.14,NW,307,10.0,17.0,74,0.00,,,0.01,,2013-02-27 17:52:00,
2013-02-27 12:01:00,34.0,26.0,30.14,North,353,7.0,18.0,73,0.00,,,0.01,,2013-02-27 18:01:00,
2013-02-27 12:11:00,34.0,26.0,30.14,North,353,7.0,18.0,73,0.00,,,0.01,,2013-02-27 18:11:00,
2013-02-27 12:22:00,35.0,27.0,30.15,NW,312,9.0,16.0,71,0.00,,,0.01,,2013-02-27 18:22:00,
2013-02-27 12:32:00,35.0,26.0,30.15,NW,311,8.0,16.0,70,0.00,,,0.01,,2013-02-27 18:32:00,
2013-02-27 12:42:00,35.0,26.0,30.15,NW,311,8.0,16.0,70,0.00,,,0.01,,2013-02-27 18:42:00,
2013-02-27 12:52:00,35.0,26.0,30.14,NW,316,15.0,15.0,68,0.00,,,0.01,,2013-02-27 18:52:00,
2013-02-27 13:01:00,36.0,26.0,30.14,NW,319,3.0,16.0,67,0.00,,,0.01,,2013-02-27 19:01:00,
2013-02-27 13:11:00,36.0,26.0,30.14,NW,319,3.0,16.0,67,0.00,,,0.01,,2013-02-27 19:11:00,
2013-02-27 13:21:00,37.0,27.0,30.14,NW,309,9.0,15.0,67,0.00,,,0.01,,2013-02-27 19:21:00,
2013-02-27 13:32:00,37.0,27.0,30.14,NW,309,9.0,15.0,67,0.00,,,0.01,,2013-02-27 19:32:00,
2013-02-27 13:42:00,37.0,27.0,30.14,NW,309,9.0,15.0,67,0.00,,,0.01,,2013-02-27 19:42:00,
2013-02-27 13:52:00,38.0,27.0,30.14,NW,316,10.0,16.0,65,0.00,,,0.01,,2013-02-27 19:52:00,
2013-02-27 14:01:00,38.0,27.0,30.14,NNW,335,6.0,15.0,65,0.00,,,0.01,,2013-02-27 20:01:00,
2013-02-27 14:12:00,38.0,27.0,30.14,NNW,335,6.0,15.0,65,0.00,,,0.01,,2013-02-27 20:12:00,
2013-02-27 14:21:00,39.0,28.0,30.14,NW,323,12.0,17.0,65,0.00,,,0.01,,2013-02-27 20:21:00,
2013-02-27 14:32:00,39.0,28.0,30.14,NW,314,9.0,15.0,64,0.00,,,0.01,,2013-02-27 20:32:00,
2013-02-27 14:42:00,39.0,28.0,30.14,NW,314,9.0,15.0,64,0.00,,,0.01,,2013-02-27 20:42:00,
2013-02-27 14:52:00,40.0,27.0,30.15,NW,322,10.0,17.0,60,0.00,,,0.01,,2013-02-27 20:52:00,
2013-02-27 15:02:00,40.0,28.0,30.15,NNW,332,9.0,18.0,61,0.00,,,0.01,,2013-02-27 21:02:00,
2013-02-27 15:11:00,40.0,28.0,30.15,NNW,332,9.0,18.0,61,0.00,,,0.01,,2013-02-27 21:11:00,
2013-02-27 15:21:00,40.0,27.0,30.16,NW,314,8.0,18.0,60,0.00,,,0.01,,2013-02-27 21:21:00,
2013-02-27 15:31:00,40.0,28.0,30.15,NW,317,9.0,16.0,63,0.00,,,0.01,,2013-02-27 21:31:00,
2013-02-27 15:42:00,40.0,28.0,30.15,NW,317,9.0,16.0,63,0.00,,,0.01,,2013-02-27 21:42:00,
2013-02-27 15:52:00,40.0,28.0,30.15,NW,317,9.0,16.0,63,0.00,,,0.01,,2013-02-27 21:52:00,
2013-02-27 16:01:00,40.0,28.0,30.16,WSW,249,14.0,17.0,61,0.00,,,0.01,,2013-02-27 22:01:00,
2013-02-27 16:11:00,40.0,28.0,30.16,WSW,249,14.0,17.0,61,0.00,,,0.01,,2013-02-27 22:11:00,
2013-02-27 16:21:00,40.0,28.0,30.16,WNW,303,8.0,16.0,62,0.00,,,0.00,,2013-02-27 22:21:00,
2013-02-27 16:32:00,40.0,28.0,30.16,WNW,303,8.0,16.0,62,0.00,,,0.00,,2013-02-27 22:32:00,
2013-02-27 16:41:00,40.0,28.0,30.16,WNW,303,8.0,16.0,62,0.00,,,0.00,,2013-02-27 22:41:00,
2013-02-27 16:52:00,40.0,29.0,30.16,NW,308,10.0,14.0,65,0.00,,,0.00,,2013-02-27 22:52:00,
2013-02-27 17:01:00,40.0,30.0,30.16,WNW,301,6.0,16.0,66,0.00,,,0.00,,2013-02-27 23:01:00,
2013-02-27 17:11:00,40.0,30.0,30.16,WNW,301,6.0,16.0,66,0.00,,,0.00,,2013-02-27 23:11:00,
2013-02-27 17:21:00,40.0,30.0,30.16,NNW,328,11.0,16.0,68,0.00,,,0.00,,2013-02-27 23:21:00,
2013-02-27 17:32:00,39.0,30.0,30.17,WNW,299,10.0,15.0,69,0.00,,,0.00,,2013-02-27 23:32:00,
2013-02-27 17:42:00,39.0,30.0,30.17,WNW,299,10.0,15.0,69,0.00,,,0.00,,2013-02-27 23:42:00,
2013-02-27 17:53:00,39.0,30.0,30.17,WNW,299,10.0,15.0,69,0.00,,,0.00,,2013-02-27 23:53:00,
2013-02-27 18:01:00,39.0,30.0,30.18,NW,316,8.0,13.0,70,0.00,,,0.00,,2013-02-28 00:01:00,
2013-02-27 18:11:00,39.0,30.0,30.18,NW,316,8.0,13.0,70,0.00,,,0.00,,2013-02-28 00:11:00,
2013-02-27 18:21:00,38.0,30.0,30.18,NW,309,4.0,13.0,72,0.00,,,0.00,,2013-02-28 00:21:00,
2013-02-27 18:32:00,38.0,30.0,30.18,West,269,6.0,17.0,73,0.00,,,0.00,,2013-02-28 00:32:00,
2013-02-27 18:42:00,38.0,30.0,30.18,West,269,6.0,17.0,73,0.00,,,0.00,,2013-02-28 00:42:00,
2013-02-27 18:52:00,37.0,29.0,30.19,NW,317,4.0,13.0,73,0.00,,,0.00,,2013-02-28 00:52:00,
2013-02-27 19:01:00,37.0,29.0,30.19,WNW,295,6.0,14.0,74,0.00,,,0.00,,2013-02-28 01:01:00,
2013-02-27 19:11:00,37.0,29.0,30.19,WNW,295,6.0,14.0,74,0.00,,,0.00,,2013-02-28 01:11:00,
2013-02-27 19:21:00,37.0,29.0,30.19,NW,314,12.0,13.0,74,0.00,,,0.00,,2013-02-28 01:21:00,
2013-02-27 19:31:00,36.0,29.0,30.20,NNW,332,3.0,12.0,74,0.00,,,0.00,,2013-02-28 01:31:00,
2013-02-27 19:41:00,36.0,29.0,30.20,NNW,332,3.0,12.0,74,0.00,,,0.00,,2013-02-28 01:41:00,
2013-02-27 19:52:00,36.0,29.0,30.20,NNW,332,3.0,12.0,74,0.00,,,0.00,,2013-02-28 01:52:00,
2013-02-27 20:01:00,36.0,29.0,30.20,NNW,332,3.0,12.0,74,0.00,,,0.00,,2013-02-28 02:01:00,
2013-02-27 20:11:00,36.0,29.0,30.20,NNW,332,3.0,12.0,74,0.00,,,0.00,,2013-02-28 02:11:00,
2013-02-27 20:22:00,35.0,29.0,30.20,NW,307,9.0,10.0,77,0.00,,,0.00,,2013-02-28 02:22:00,
2013-02-27 20:32:00,35.0,29.0,30.19,NW,319,6.0,10.0,78,0.00,,,0.00,,2013-02-28 02:32:00,
2013-02-27 20:42:00,35.0,29.0,30.19,NW,319,6.0,10.0,78,0.00,,,0.00,,2013-02-28 02:42:00,
2013-02-27 20:52:00,35.0,29.0,30.19,NW,319,6.0,10.0,78,0.00,,,0.00,,2013-02-28 02:52:00,
2013-02-27 21:01:00,35.0,29.0,30.20,WNW,297,6.0,11.0,79,0.00,,,0.00,,2013-02-28 03:01:00,
2013-02-27 21:11:00,35.0,29.0,30.20,WNW,297,6.0,11.0,79,0.00,,,0.00,,2013-02-28 03:11:00,
2013-02-27 21:21:00,35.0,29.0,30.20,NW,314,3.0,10.0,78,0.00,,,0.00,,2013-02-28 03:21:00,
2013-02-27 21:31:00,35.0,29.0,30.20,NW,314,3.0,10.0,78,0.00,,,0.00,,2013-02-28 03:31:00,
2013-02-27 21:41:00,35.0,29.0,30.20,NW,314,3.0,10.0,78,0.00,,,0.00,,2013-02-28 03:41:00,
2013-02-27 21:52:00,35.0,29.0,30.20,NW,314,3.0,10.0,78,0.00,,,0.00,,2013-02-28 03:52:00,
2013-02-27 22:22:00,34.0,28.0,30.20,NW,314,4.0,10.0,79,0.00,,,0.00,,2013-02-28 04:22:00,
2013-02-27 22:32:00,34.0,28.0,30.21,NW,308,6.0,10.0,79,0.00,,,0.00,,2013-02-28 04:32:00,
2013-02-27 22:42:00,34.0,28.0,30.21,NW,308,6.0,10.0,79,0.00,,,0.00,,2013-02-28 04:42:00,
2013-02-27 22:52:00,34.0,28.0,30.20,NW,311,6.0,10.0,80,0.00,,,0.00,,2013-02-28 04:52:00,
2013-02-27 23:01:00,34.0,28.0,30.20,NW,311,6.0,11.0,80,0.00,,,0.00,,2013-02-28 05:01:00,
2013-02-27 23:11:00,34.0,28.0,30.20,NW,311,6.0,11.0,80,0.00,,,0.00,,2013-02-28 05:11:00,
2013-02-27 23:22:00,34.0,28.0,30.21,NW,321,3.0,9.0,80,0.00,,,0.00,,2013-02-28 05:22:00,
2013-02-27 23:31:00,33.0,28.0,30.20,NW,316,4.0,8.0,80,0.00,,,0.00,,2013-02-28 05:31:00,
2013-02-27 23:42:00,33.0,28.0,30.20,NW,316,4.0,8.0,80,0.00,,,0.00,,2013-02-28 05:42:00,
2013-02-27 23:52:00,33.0,28.0,30.21,WNW,302,2.0,6.0,80,0.00,,,0.00,,2013-02-28 05:52:00,